DECAYED
Showing default

FLOCK 4Y 12, 55065 (Decayed)

Orbit data source: Space-Track

FLOCK 4Y 12, 55065 was a payload satellite owned by Planet (US) in LEO that was launched on Tue, 03 Jan 2023 UTC via an FALCON 9 launch vehicle from the Air Force Eastern Test Range (AFETR). Payload-class satellites include a variety of spacecraft equipped with specific instruments for various scientific and technological missions. These include communications satellites like Starlink; space stations such as the ISS; scientific satellites like the Hubble; Earth observation satellites from companies like Planet Labs, Umbra, and HawkEye 360; GPS; miniature CubeSats for education and research; and military/defense satellites.

Not visible in the next 10 days
Identifier
55065, 2023-001BJ
Orbit
Decayed
Country
Flag of USUS
Related business
Manufacturer
Planet
Mission
Decayed Commercial Imaging
Bus & Motor
CUBESAT 3U, Unknown motor
Mass
5.7 kg wet, 5.7 kg dry
Launch date (UTC)
2023-01-03 (3 years ago)
Launch vehicle
FALCON 9
Launch site
Air Force Eastern Test Range (AFETR)
Object type
Payload
Rocket body
Debris
Shape & HBR
Box + 2 Pan, 1.0 m
Radar Cross Section
0.108 m², Medium (>0.1 m² and < 1m²)

Expand to show TLE details & history
Last TLE update: 9 months ago

TLE from 9 months ago
0 FLOCK 4Y 12
1 55065U 23001BJ  25267.99260889  .13744870  34563-5  13122-2 0  9991
2 55065  97.3339 346.8732 0014326 272.1884  87.7774 16.38229931152707
Epoch: 2025-09-24T23:49Z
TLE epoch observation values (Epoch: 2025-09-24T23:49:21.408Z)
Latitude
-0.00001°
Longitude
-14.52613°
Altitude
173.416 km
Speed
7.802 km/s
True Right ascension
23h 07m 29s
True Declination
0° 00' 00"
Sunlit
Object was in full shadow at epoch
Visualization orbit readout
Latitude
Unknown
Longitude
Unknown
Altitude
Unknown
Speed
Unknown
Apparent Right ascension
Unknown
Apparent Declination
Unknown
Sunlit
N/A
Visualization observer readout
Local Sidereal Time
19:08:08
Azimuth
Unknown
Elevation
Unknown
Doppler factor
Unknown
Orbital elements
Apogee altitude
176.699 km
Perigee altitude
157.945 km
Semi-major axis
6,545.459 km
Eccentricity
0.00143
Inclination
97.3339°
RAAN
346.8732°
Arg. of periapsis
272.1884°
True anomaly
87.94145°
Mean anomaly
87.7774°
Eccentric anomaly
87.85942°
Mean motion
4.09858 °/min
Orbital period
87.84 mins
BSTAR
0.0013122
Loading maneuver chart data...
Computing Atmospheric mass density...

Documentation

Showing up to 5 results
|